Back to catalog

FENGYUN 1C DEB

AliveSSO
NORAD 29974·DEBRIS·🇨🇳 China

Launched May 10, 1999 from Taiyuan Satellite Launch Center

Loading…

Next Passes (next 24 hours)

TLE

FreshSource: Space-Track

Epoch: Sep 13, 2026, 17:40 UTC

1 29974U 99025KY  26256.73613278  .00001736  00000-0  89513-3 0  9990
2 29974  98.8852 345.0089 0045030  21.3822 131.7152 14.15937789  8150

Track FENGYUN 1C DEB in real time with AllMySat

Download on the App Store